Weather History for Orangeburg, SC

Change the Weather History Date:

Tuesday, November 6, 2012

  Actual Average Record
Temperature  
Mean Temperature 45 °F 59 °F  
Max Temperature 51 °F 71 °F 83 °F (1961)
Min Temperature 39 °F 47 °F 26 °F (1976)
Degree Days  
Heating Degree Days 20 7  
Month to date heating degree days 60 39  
Since 1 July heating degree days 137 129  
Cooling Degree Days 0 1  
Month to date cooling degree days 2 6  
Year to date cooling degree days 2317 2093  
Moisture  
Dew Point 37 °F    
Average Humidity 69    
Maximum Humidity 85    
Minimum Humidity 52    
Precipitation  
Precipitation 0.05 in 0.09 in 2.33 in (1963)
Month to date precipitation 0.12 0.46  
Year to date precipitation 36.85 40.95  
Sea Level Pressure  
Sea Level Pressure 29.99 in    
Wind  
Wind Speed 7 mph (NE)    
Max Wind Speed 16 mph    
Max Gust Speed 23 mph    
Visibility 10 miles    
Events Rain    
T = Trace of Precipitation, MM = Missing Value Source: NWS Daily Summary

Daily Weather History Graph

Daily Weather History Graph

Search for Another Location

Airport:

Trip Planner

Search our weather history database for the weather conditions in past years. The results will help you decide how hot, cold, wet, or windy it might be!

Date:

Astronomy

Nov. 06, 2012 Rise Set
Actual Time 6:47 AM EST 5:26 PM EST
Civil Twilight 6:21 AM EST 5:52 PM EST
Nautical Twilight 5:51 AM EST 6:22 PM EST
Astronomical Twilight 5:22 AM EST 6:51 PM EST
Moon No Moon Rise 12:40 PM EST (11/6)
Length of Visible Light 11h 31m
Length of Day
10h 39m
Waning Gibbous, 53% of the Moon is Illuminated
Nov 6
Waning Gibbous
Nov 6
Last Quarter
Nov 13
New
Nov 20
First Quarter
Nov 28
Full

Hourly Weather History & Observations

Time (EST) Temp. Windchill Dew Point Humidity Pressure Visibility Wind Dir Wind Speed Gust Speed Precip Events Conditions
12:53 AM 46.9 °F - 39.9 °F 77% 30.03 in 10.0 mi ENE 3.5 mph - N/A   Clear
1:53 AM 46.9 °F - 39.9 °F 77% 30.03 in 10.0 mi ENE 4.6 mph - N/A   Scattered Clouds
2:53 AM 48.9 °F - 39.0 °F 69% 30.01 in 10.0 mi ENE 5.8 mph - N/A   Mostly Cloudy
3:53 AM 48.0 °F - 39.0 °F 71% 30.00 in 10.0 mi ENE 5.8 mph - N/A   Overcast
4:53 AM 48.0 °F - 37.9 °F 68% 30.02 in 10.0 mi Variable 5.8 mph - N/A   Mostly Cloudy
5:53 AM 46.9 °F - 37.0 °F 68% 30.05 in 10.0 mi ENE 5.8 mph - N/A   Overcast
6:53 AM 46.9 °F - 36.0 °F 66% 30.02 in 10.0 mi ENE 8.1 mph - N/A   Clear
7:53 AM 46.9 °F - 35.1 °F 63% 30.03 in 10.0 mi ENE 8.1 mph 16.1 mph N/A   Mostly Cloudy
8:53 AM 46.0 °F 41.0 °F 34.0 °F 63% 30.03 in 10.0 mi ENE 10.4 mph - N/A   Overcast
9:53 AM 48.0 °F - 33.1 °F 56% 30.02 in 10.0 mi NE 10.4 mph - N/A   Overcast
10:53 AM 48.0 °F - 32.0 °F 54% 30.01 in 10.0 mi NE 16.1 mph - N/A   Overcast
11:53 AM 48.9 °F - 33.1 °F 54% 29.99 in 10.0 mi NE 12.7 mph - N/A   Overcast
12:53 PM 50.0 °F - 34.0 °F 54% 29.94 in 10.0 mi NE 15.0 mph 20.7 mph N/A   Overcast
1:53 PM 50.0 °F - 34.0 °F 54% 29.94 in 10.0 mi NE 10.4 mph 18.4 mph N/A   Overcast
2:53 PM 50.0 °F - 36.0 °F 59% 29.95 in 10.0 mi North 8.1 mph - 0.00 in   Overcast
3:53 PM 46.9 °F - 39.0 °F 74% 29.94 in 3.0 mi NE 8.1 mph - 0.02 in Rain Rain
4:53 PM 46.0 °F 43.9 °F 41.0 °F 83% 29.95 in 9.0 mi NNE 4.6 mph - 0.03 in   Overcast
5:53 PM 46.0 °F 43.1 °F 41.0 °F 83% 29.95 in 10.0 mi NNE 5.8 mph - 0.00 in   Overcast
6:53 PM 46.0 °F 44.8 °F 41.0 °F 83% 29.97 in 10.0 mi North 3.5 mph - N/A   Overcast
7:53 PM 45.0 °F 41.8 °F 37.9 °F 76% 29.96 in 10.0 mi NNE 5.8 mph - N/A   Partly Cloudy
8:53 PM 42.1 °F 38.4 °F 36.0 °F 79% 29.95 in 10.0 mi NE 5.8 mph - N/A   Clear
9:53 PM 42.1 °F 40.2 °F 35.1 °F 76% 29.96 in 10.0 mi NE 3.5 mph - N/A   Clear
10:53 PM 39.9 °F 36.7 °F 35.1 °F 83% 29.96 in 9.0 mi North 4.6 mph - N/A   Clear
11:53 PM 39.9 °F 35.8 °F 33.1 °F 77% 29.94 in 10.0 mi North 5.8 mph - N/A   Clear